This is the latest recevied weather packets stored in our database for station/object KA7EII-13. If no packets are shown the sender has not sent any weather packets the latest 10 day(s).
| Time | Temp. | Humidity | Pressure | Rain* | Wind** | Luminosity | Snow |
|---|---|---|---|---|---|---|---|
| 1777832800 | 21.67° C | 27% | 1104.4 hPa | 0 mm | - | 703 W/m² | - |
| 1777832498 | 21.11° C | 29% | 1104.4 hPa | 0 mm | - | 667 W/m² | - |
| 1777832195 | 21.11° C | 27% | 1104.2 hPa | 0 mm | - | 677 W/m² | - |
| 1777831892 | 20.56° C | 26% | 1104.5 hPa | 0 mm | - | 705 W/m² | - |
| 1777831588 | 20.56° C | 28% | 1104.6 hPa | 0 mm | - | 715 W/m² | - |
| 1777831286 | 20.56° C | 27% | 1104.6 hPa | 0 mm | - | 739 W/m² | - |
| 1777830983 | 20° C | 29% | 1104.6 hPa | 0 mm | - | 764 W/m² | - |
| 1777830680 | 20° C | 29% | 1104.6 hPa | 0 mm | - | 744 W/m² | - |
| 1777830376 | 20° C | 27% | 1105 hPa | 0 mm | - | 747 W/m² | - |
| 1777830074 | 20° C | 29% | 1104.7 hPa | 0 mm | - | 774 W/m² | - |
| 1777829768 | 19.44° C | 28% | 1104.7 hPa | 0 mm | - | 789 W/m² | - |
| 1777829465 | 20° C | 29% | 1104.8 hPa | 0 mm | - | 819 W/m² | - |
| 1777829162 | 20° C | 31% | 1104.8 hPa | 0 mm | - | 822 W/m² | - |
| 1777828860 | 19.44° C | 28% | 1105 hPa | 0 mm | - | 822 W/m² | - |
| 1777828556 | 19.44° C | 28% | 1105 hPa | 0 mm | - | 812 W/m² | - |
| 1777828254 | 18.89° C | 31% | 1105.2 hPa | 0 mm | - | 765 W/m² | - |
| 1777827949 | 19.44° C | 29% | 1105.2 hPa | 0 mm | - | 766 W/m² | - |
| 1777827647 | 19.44° C | 30% | 1105.2 hPa | 0 mm | - | 776 W/m² | - |
| 1777827344 | 18.89° C | 31% | 1105.4 hPa | 0 mm | - | 776 W/m² | - |
| 1777827040 | 18.89° C | 30% | 1105.2 hPa | 0 mm | - | 716 W/m² | - |
| 1777826737 | 18.89° C | 32% | 1105.4 hPa | 0 mm | - | 701 W/m² | - |
| 1777826434 | 18.33° C | 33% | 1105.4 hPa | 0 mm | - | 696 W/m² | - |
| 1777826131 | 17.78° C | 33% | 1105.5 hPa | 0 mm | - | 698 W/m² | - |
| 1777825828 | 17.78° C | 32% | 1105.4 hPa | 0 mm | - | 649 W/m² | - |
| 1777825525 | 17.78° C | 32% | 1105.4 hPa | 0 mm | - | 621 W/m² | - |
* Rain latest hour (hover to see other rain measurements)
** Current wind speed in m/s (hover to see current wind gust speed)